Regional Weather Roundup
Issued by NWS Northern Indiana

Home | Current Version | Previous Version | Text Only | Print | Product List | Glossary Off
Versions: 1 2 3 4 5 6 7 8 9 10 11 12 13 14 15 16 17 18 19 20 21 22 23 24 25 26 27 28 29 30 31 32 33 34 35 36 37 38 39 40 41 42 43 44 45 46 47 48 49 50

662
ASUS43 KIWX 280910
RWRIWX

KIWX WEATHER ROUNDUP
NATIONAL WEATHER SERVICE NORTHERN INDIANA
500 AM EDT TUE MAR 28 2017

NOTE: "FAIR" INDICATES FEW OR NO CLOUDS BELOW 12,000 FEET WITH NO
SIGNIFICANT WEATHER AND/OR OBSTRUCTIONS TO VISIBILITY.

* THESE STATIONS ARE NOT UNDER NWS QUALITY CONTROL. THEY ALSO MAY NOT
  REPORT WEATHER SUCH AS PRECIPITATION OR FOG.

INZ001>027-281000-
NORTHERN INDIANA

CITY           SKY/WX    TMP DP  RH WIND       PRES   REMARKS
GARY*          MOCLDY    39  37  90 N16       30.01R
VALPARAISO     CLOUDY    39  37  92 N8G18     29.97R
MICHIGAN CITY* CLOUDY    37  37 100 N7        29.99R
LAPORTE*       CLOUDY    38  37  95 N12G17    29.96S
KNOX*          CLOUDY    39  28  65 N9        29.95S
SOUTH BEND     PTCLDY    38  36  92 N8        29.96R
GOSHEN         CLOUDY    44  40  85 N13       29.93R
MONTICELLO*    CLOUDY    43  39  88 N10       29.94R
LOGANSPORT*    CLOUDY    45  43  93 N10       29.93R
ROCHESTER*     CLOUDY    46  45  93 N8        29.93R
WARSAW*        CLOUDY    45  43  93 N9        29.93R
ANGOLA*        CLOUDY    46  37  71 N7        29.91R
FORT WAYNE     CLOUDY    51  47  86 N10       29.90R
HUNTINGTON*    CLOUDY    49  48  96 N7        29.90R
PERU/GRISSOM   CLOUDY    49  49 100 N10       29.89R
MARION*        CLOUDY    51  50  95 N12       29.89S FOG

$$
INZ028>050-281000-
CENTRAL INDIANA

CITY           SKY/WX    TMP DP  RH WIND       PRES   REMARKS
LAFAYETTE      CLOUDY    44  41  89 N13       29.94R
KOKOMO*        CLOUDY    50  48  93 N13       29.91R
MUNCIE*        CLOUDY    54  51  90 NE9       29.87R
INDIANAPOLIS   CLOUDY    54  52  93 N10       29.88R

$$
MIZ043>046-050>051-056>058-064>065-071>073-077>080-281000-
SOUTHWEST LOWER MICHIGAN

CITY           SKY/WX    TMP DP  RH WIND       PRES   REMARKS
BATTLE CREEK   CLOUDY    45  42  89 N7        29.94R
BENTON HARBOR  CLOUDY    39  36  89 N6        29.97S
COLDWATER*     CLOUDY    46  44  91 N7        29.92R
HILLSDALE*     CLOUDY    45  43  93 N10       29.90R
HOLLAND        CLOUDY    41  37  86 N6        29.98R
GRAND RAPIDS   CLOUDY    43  41  93 N7        29.96R
KALAMAZOO      CLOUDY    44  39  82 N7        29.94R
STURGIS*       CLOUDY    44  42  93 N8        29.92R
THREE RIVERS*  CLOUDY    44  41  89 CALM      29.94R

$$
OHZ001>008-015>018-024>025-281000-
NORTHWEST OHIO

CITY           SKY/WX    TMP DP  RH WIND       PRES   REMARKS
WAUSEON*       CLOUDY    50  46  87 N9        29.90R
DEFIANCE       CLOUDY    50  47  89 N8        29.90R
FINDLAY        LGT RAIN  53  49  86 MISG      29.86S FOG
TOLEDO EXPRESS CLOUDY    50  47  89 N8        29.89R
TOLEDO METCALF CLOUDY    47  45  93 NE12G17   29.90R FOG
LIMA           LGT RAIN  52  52 100 N7        29.86R FOG

$$
AND FOR LAKE MICHIGAN COASTAL AND OPEN LAKE BUOY OBSERVATIONS

STATION/POSITION TEMP    WIND        PRES    VSBY  WAVE
                 AIR SEA DIR/SP/G                  HT/PER
                 (F)     (DEG/KT/KT) (MB)    (MI)  (FT/S)
CALUMET HARBOR    38     330/ 11/ 19 1015.3R
MICHIGAN CITY     38     350/ 15/ 16   N/A
BURNS HARBOR      38     360/ 12/ 14 1016.3R
SAINT JOSEPH      38      20/ 10/ 13 1015.9

$$
&&




USA.gov is the U.S. government's official web portal to all federal, state and local government web resources and services.